Date String (YYYY-MM-DD hh:mm:ss) UTC,Instrument flags,Ambient pressure (hPa),Sample flow (lpm),Bypass flow (lpm),Sample temperature (°C),Ambient temperature (°C),ASC tube jacket temperature (°C),LED temperature (°C),Box temperature (°C),Sample RH (%),Span deviation,Mass concentration (μg/m³),Mass concentration (μg/m³),Mass concentration (μg/m³)
DateTimeUTC,F1_M11,P_M11,Q1_M11,Q2_M11,T1_M11,T2_M11,T3_M11,T4_M11,T5_M11,U1_M11,ZSPAN_M11,X0_M11,X2_M11,X1_M11
2022-05-04 13:00:00,,0822.7,5.00,0.00,24.3,23.7,00.0,33.3,26.1,25.1,-002.5,0009.06,0006.93,0006.84
2022-05-04 13:01:00,,0822.7,5.01,0.00,24.3,23.7,00.0,33.3,26.2,25.2,-002.6,0009.10,0006.92,0006.81
2022-05-04 13:02:00,,0822.9,4.99,0.00,24.3,23.7,00.0,33.3,26.2,25.1,-002.7,0009.12,0006.92,0006.80
2022-05-04 13:03:00,,0822.8,5.02,0.00,24.3,23.7,00.0,33.3,26.2,25.1,-002.9,0009.15,0006.93,0006.81
2022-05-04 13:04:00,,0822.8,4.99,0.00,24.3,23.7,00.0,33.3,26.1,25.0,-002.9,0009.15,0006.94,0006.81
2022-05-04 13:05:00,,0822.9,4.99,0.00,24.3,23.7,00.0,33.3,26.1,25.0,-002.7,0009.09,0006.96,0006.84
2022-05-04 13:06:00,,0822.9,5.00,0.00,24.3,23.7,00.0,33.3,26.1,25.0,-002.2,0009.19,0007.07,0006.93
2022-05-04 13:07:00,,0823.0,4.99,0.00,24.3,23.7,00.0,33.3,26.1,25.1,-001.0,0009.31,0007.16,0007.00
2022-05-04 13:08:00,,0822.9,5.01,0.00,24.3,23.7,00.0,33.3,26.2,25.0,0000.6,0009.42,0007.27,0007.10
2022-05-04 13:09:00,,0823.0,5.00,0.00,24.3,23.7,00.0,33.3,26.1,25.0,0001.3,0009.63,0007.44,0007.25
2022-05-04 13:10:00,,0822.9,5.01,0.00,24.3,23.7,00.0,33.3,26.1,25.0,0000.8,0009.94,0007.66,0007.44
2022-05-04 13:11:00,,0822.9,4.99,0.00,24.3,23.7,00.0,33.3,26.1,24.9,0000.4,0010.15,0007.83,0007.60
2022-05-04 13:12:00,,0822.9,5.00,0.00,24.3,23.7,00.0,33.3,26.1,25.0,0000.1,0010.30,0007.99,0007.73
2022-05-04 13:13:00,,0822.9,5.01,0.00,24.3,23.7,00.0,33.3,26.2,24.9,-000.1,0010.46,0008.13,0007.86
2022-05-04 13:14:00,,0822.9,5.00,0.00,24.3,23.7,00.0,33.3,26.2,24.9,0000.4,0010.59,0008.23,0007.96
2022-05-04 13:15:00,,0822.9,5.00,0.00,24.3,23.7,00.0,33.3,26.2,24.9,0001.0,0010.78,0008.36,0008.06
2022-05-04 13:16:00,,0823.0,5.00,0.00,24.3,23.7,00.0,33.3,26.2,25.0,0001.0,0010.89,0008.46,0008.16
2022-05-04 13:17:00,,0823.0,4.99,0.00,24.3,23.7,00.0,33.3,26.2,25.0,0001.0,0010.91,0008.49,0008.20
2022-05-04 13:18:00,,0823.0,5.01,0.00,24.3,23.7,00.0,33.3,26.2,24.9,0000.8,0010.88,0008.49,0008.22
2022-05-04 13:19:00,,0822.9,4.99,0.00,24.3,23.7,00.0,33.3,26.2,25.0,0000.1,0010.91,0008.50,0008.23
2022-05-04 13:20:00,,0822.9,5.01,0.00,24.4,23.7,00.0,33.3,26.2,25.0,-000.1,0010.83,0008.46,0008.20
2022-05-04 13:21:00,,0823.0,4.99,0.00,24.4,23.7,00.0,33.3,26.3,25.0,-000.0,0010.71,0008.41,0008.18
2022-05-04 13:22:00,,0823.0,5.02,0.00,24.4,23.7,00.0,33.3,26.3,25.0,0000.3,0010.69,0008.39,0008.17
2022-05-04 13:23:00,,0823.1,5.00,0.00,24.4,23.7,00.0,33.3,26.3,24.9,0000.5,0010.60,0008.34,0008.14
2022-05-04 13:24:00,,0823.1,4.99,0.00,24.4,23.7,00.0,33.3,26.3,24.9,0000.6,0010.61,0008.31,0008.09
2022-05-04 13:25:00,,0823.1,5.02,0.00,24.4,23.7,00.0,33.3,26.3,24.9,0000.2,0010.60,0008.28,0008.04
2022-05-04 13:26:00,,0823.1,5.00,0.00,24.4,23.7,00.0,33.3,26.3,24.9,-000.2,0010.55,0008.26,0008.03
2022-05-04 13:27:00,,0823.2,5.01,0.00,24.4,23.8,00.0,33.3,26.3,24.9,-000.2,0010.53,0008.22,0007.98
2022-05-04 13:28:00,,0823.2,5.00,0.00,24.4,23.8,00.0,33.3,26.3,24.9,-000.4,0010.57,0008.20,0007.94
2022-05-04 13:29:00,,0823.2,5.00,0.00,24.5,23.8,00.0,33.3,26.3,24.9,-000.6,0010.64,0008.22,0007.93
2022-05-04 13:30:00,,0823.2,5.02,0.00,24.5,23.8,00.0,33.3,26.4,24.9,-000.8,0010.96,0008.23,0007.92
2022-05-04 13:31:00,,0823.2,4.99,0.00,24.5,23.8,00.0,33.4,26.3,25.0,-001.5,0011.75,0008.20,0007.87
2022-05-04 13:32:00,,0823.3,5.00,0.00,24.5,23.8,00.0,33.4,26.4,26.2,-001.6,0011.79,0008.16,0007.81
2022-05-04 13:33:00,,0823.2,5.01,0.00,24.5,23.8,00.0,33.4,26.4,26.0,-002.0,0011.75,0008.13,0007.79
2022-05-04 13:34:00,,0823.2,4.99,0.00,24.5,23.8,00.0,33.4,26.4,25.2,-002.3,0011.74,0008.10,0007.76
2022-05-04 13:35:00,,0823.3,5.01,0.00,24.6,23.8,00.0,33.4,26.4,25.0,-002.1,0011.68,0008.06,0007.72
2022-05-04 13:36:00,,0823.3,4.98,0.00,24.6,23.8,00.0,33.4,26.4,25.0,-001.9,0011.64,0008.02,0007.68
2022-05-04 13:37:00,,0823.3,5.01,0.00,24.6,23.8,00.0,33.4,26.5,24.9,-001.7,0011.51,0007.93,0007.62
2022-05-04 13:38:00,,0823.3,4.99,0.00,24.6,23.9,00.0,33.4,26.5,24.9,-002.1,0011.40,0007.85,0007.56
2022-05-04 13:39:00,,0823.3,5.00,0.00,24.6,23.9,00.0,33.4,26.5,24.9,-002.3,0011.23,0007.76,0007.49
2022-05-04 13:40:00,,0823.3,5.00,0.00,24.6,23.9,00.0,33.4,26.5,24.8,-002.3,0011.13,0007.67,0007.42
2022-05-04 13:41:00,,0823.3,5.00,0.00,24.6,23.9,00.0,33.5,26.5,24.8,-002.1,0010.80,0007.58,0007.35
2022-05-04 13:42:00,,0823.3,5.00,0.00,24.6,23.9,00.0,33.5,26.5,24.8,-001.5,0009.95,0007.56,0007.33
2022-05-04 13:43:00,,0823.4,5.01,0.00,24.6,23.9,00.0,33.5,26.5,24.8,-001.6,0009.80,0007.49,0007.28
2022-05-04 13:44:00,,0823.4,4.99,0.00,24.6,23.9,00.0,33.5,26.5,24.7,-001.5,0009.69,0007.41,0007.19
2022-05-04 13:45:00,,0823.4,5.01,0.00,24.6,23.9,00.0,33.5,26.5,24.7,-001.4,0009.57,0007.33,0007.14
2022-05-04 13:46:00,,0823.3,4.98,0.00,24.6,23.9,00.0,33.5,26.5,24.7,-001.3,0009.45,0007.25,0007.09
2022-05-04 13:47:00,,0823.4,5.01,0.00,24.6,23.9,00.0,33.5,26.5,24.6,-001.3,0009.33,0007.18,0007.04
2022-05-04 13:48:00,,0823.4,5.00,0.00,24.6,23.9,00.0,33.5,26.5,24.6,-001.5,0009.25,0007.10,0006.97
2022-05-04 13:49:00,,0823.4,5.01,0.00,24.6,23.9,00.0,33.5,26.5,24.6,-001.5,0009.14,0007.02,0006.89
2022-05-04 13:50:00,,0823.4,4.99,0.00,24.6,23.9,00.0,33.5,26.5,24.6,-001.0,0009.02,0006.88,0006.76
2022-05-04 13:51:00,,0823.4,5.01,0.00,24.6,23.9,00.0,33.5,26.5,24.5,-000.7,0008.89,0006.71,0006.61
2022-05-04 13:52:00,,0823.4,4.99,0.00,24.6,23.9,00.0,33.5,26.5,24.5,-000.6,0008.63,0006.49,0006.40
2022-05-04 13:53:00,,0823.3,5.01,0.00,24.7,23.9,00.0,33.5,26.5,24.4,-000.9,0008.36,0006.23,0006.14
2022-05-04 13:54:00,,0823.3,5.00,0.00,24.7,23.9,00.0,33.5,26.6,24.4,-000.7,0008.14,0006.00,0005.89
2022-05-04 13:55:00,,0823.3,4.99,0.00,24.7,23.9,00.0,33.5,26.5,24.3,-000.7,0007.97,0005.82,0005.72
2022-05-04 13:56:00,,0823.4,5.01,0.00,24.7,23.9,00.0,33.6,26.5,24.3,-000.9,0007.82,0005.65,0005.55
2022-05-04 13:57:00,,0823.4,4.99,0.00,24.7,23.9,00.0,33.6,26.6,24.4,-000.5,0007.64,0005.48,0005.39
2022-05-04 13:58:00,,0823.4,5.00,0.00,24.7,24.0,00.0,33.6,26.6,24.3,-000.7,0007.47,0005.31,0005.22
2022-05-04 13:59:00,,0823.4,5.00,0.00,24.7,24.0,00.0,33.6,26.6,24.2,-000.4,0007.19,0005.11,0005.02
